Hourly Data Report for October 06, 2013

All times are specified in Local Standard Time (LST). Add 1 hour to adjust for Daylight Saving Time where and when it is observed.

PANGNIRTUNG
NUNAVUT

66°08'36.300" N
65°42'40.500" W
22.60 m
2403049
71826
WXP

Download Data

Hourly Data (October 2013)
Hourly Data Report for October 6, 2013
Temp Definition
°C
Dew Point Temp Definition
°C
Rel Hum Definition
%
Wind Dir Definition
10's deg

Wind Spd Definition
km/h
Visibility Definition
km
Stn Press Definition
kPa
Hmdx Definition


Wind Chill Definition


Weather Definition


TIME
00:00 -3.6 -6.1 83 24 19   101.41   -10 LegendNANA
01:00 -3.6 -6.4 81 23 11   101.41   -8 LegendNANA
02:00 -3.5 -6.3 81 23 13   101.43   -8 LegendNANA
03:00 -3.2 -6.6 77 23 13   101.45   -8 LegendNANA
04:00 -3.1 -6.9 75 23 13   101.44   -8 LegendNANA
05:00 -2.9 -7.3 72 27 11   101.47   -7 LegendNANA
06:00 -3.0 -7.3 72 28 11   101.50   -7 LegendNANA
07:00 -3.1 -7.5 72 31 9   101.52   -7 LegendNANA
08:00 -3.0 -7.7 70 26 7   101.55   -6 LegendNANA
09:00 -3.2 -7.8 70 25 9   101.56   -7 LegendNANA
10:00 -3.6 -8.1 71 22 6   101.58   -6 LegendNANA
11:00 -3.4 -8.3 69 20 7   101.56   -6 LegendNANA
12:00 -3.4 -8.0 70 20 6   101.58   -6 LegendNANA
13:00 -3.2 -7.9 70 20 6   101.59   -6 LegendNANA
14:00 -2.4 -7.5 68 21 7   101.61   -5 LegendNANA
15:00 -2.7 -7.8 68 19 9   101.62   -6 LegendNANA
16:00 -2.2 -7.9 65 32 7   101.66   -5 LegendNANA
17:00 -3.6 -8.5 69 17 6   101.67   -6 LegendNANA
18:00 -4.1 -8.8 70 19 7   101.68   -7 LegendNANA
19:00 -3.9 -8.4 71 20 9   101.72   -8 LegendNANA
20:00 -4.3 -8.2 74 20 7   101.74   -7 LegendNANA
21:00 -4.5 -8.0 76 20 9   101.73   -8 LegendNANA
22:00 -4.8 -8.0 78 19 9   101.69   -9 LegendNANA
23:00 -5.6 -8.2 82 18 4   101.66   -7 LegendNANA

Notes on Data Quality.

Legend

  • E = Estimated
  • M = Missing
  • NA = Not Available
  • ‡ = Partner data that is not subject to review by the National Climate Archives
Date modified: